When you browse on this site, cookies collect data to enhance your experience and personalize the content and advertising you see.
Visit our Privacy Policy to learn more. By continuing to use the site, you agree to this use of cookies and data.
  • In Hungary
  • List of Countries
  • For 7 days
  • Water Temperature
  • Satellite Maps
  • Weather Map
  • News
  • Weather Widgets
  • user-avatar
    Login

    Hourly Weather Stillwater

    Today, 10 December, Monday

    Time Temperature Precipitation Wind Pressure Humidity
    00:00 0°C° 0 mm 0 mps 745 mmHg 66%
    01:00 0°C° 0 mm 0 mps 745 mmHg 67%
    02:00 +1°C° 0 mm 1 mps 745 mmHg 67%
    03:00 +1°C° 0 mm 1 mps 745 mmHg 67%
    04:00 0°C° 0 mm 1 mps 745 mmHg 68%
    05:00 0°C° 0 mm 1 mps 745 mmHg 69%
    06:00 -2°C° 0 mm 2 mps 745 mmHg 70%
    07:00 +1°C° 0 mm 1 mps 745 mmHg 67%
    08:00 +2°C° 0 mm 1 mps 746 mmHg 64%
    09:00 +2°C° 0 mm 1 mps 746 mmHg 61%
    10:00 +4°C° 0 mm 1 mps 746 mmHg 56%
    11:00 +6°C° 0 mm 1 mps 746 mmHg 50%
    12:00 +8°C° 0 mm 1 mps 746 mmHg 45%
    13:00 +7°C° 0 mm 2 mps 746 mmHg 43%
    14:00 +8°C° 0 mm 2 mps 745 mmHg 41%
    15:00 +9°C° 0 mm 2 mps 745 mmHg 40%
    16:00 +8°C° 0 mm 1 mps 744 mmHg 45%
    17:00 +7°C° 0 mm 1 mps 744 mmHg 50%
    18:00 +5°C° 0 mm 1 mps 744 mmHg 55%
    19:00 +5°C° 0 mm 1 mps 744 mmHg 58%
    20:00 +3°C° 0 mm 2 mps 744 mmHg 61%
    21:00 +2°C° 0 mm 3 mps 744 mmHg 64%
    22:00 +1°C° 0 mm 3 mps 744 mmHg 68%
    23:00 +1°C° 0 mm 3 mps 744 mmHg 72%

    Tomorrow, 11 December, Tuesday

    Time Temperature Precipitation Wind Pressure Humidity
    00:00 +1°C° 0 mm 3 mps 744 mmHg 76%
    01:00 +1°C° 0 mm 3 mps 744 mmHg 78%
    02:00 0°C° 0 mm 3 mps 744 mmHg 80%
    03:00 0°C° 0 mm 3 mps 744 mmHg 82%
    04:00 -1°C° 0 mm 4 mps 743 mmHg 83%
    05:00 -1°C° 0 mm 4 mps 743 mmHg 83%
    06:00 -1°C° 0 mm 4 mps 743 mmHg 83%
    07:00 0°C° 0 mm 4 mps 743 mmHg 78%
    08:00 +1°C° 0 mm 5 mps 742 mmHg 73%
    09:00 +2°C° 0 mm 6 mps 742 mmHg 67%
    10:00 +5°C° 0 mm 6 mps 742 mmHg 61%
    11:00 +8°C° 0 mm 7 mps 741 mmHg 55%
    12:00 +10°C° 0 mm 8 mps 741 mmHg 49%
    13:00 +11°C° 0 mm 8 mps 740 mmHg 49%
    14:00 +11°C° 0 mm 9 mps 739 mmHg 48%
    15:00 +12°C° 0 mm 9 mps 738 mmHg 47%
    16:00 +11°C° 0 mm 8 mps 737 mmHg 51%
    17:00 +10°C° 0 mm 7 mps 737 mmHg 55%
    18:00 +8°C° 0 mm 7 mps 737 mmHg 59%
    19:00 +8°C° 0 mm 7 mps 737 mmHg 58%
    20:00 +8°C° 0 mm 7 mps 737 mmHg 58%
    21:00 +7°C° 0 mm 8 mps 736 mmHg 57%
    22:00 +7°C° 0 mm 8 mps 736 mmHg 59%
    23:00 +7°C° 0 mm 8 mps 736 mmHg 61%

    Day after tomorrow, 12 December, Wednesday

    Time Temperature Precipitation Wind Pressure Humidity
    00:00 +7°C° 0 mm 8 mps 735 mmHg 63%
    01:00 +8°C° 0 mm 7 mps 735 mmHg 68%
    02:00 +8°C° 0 mm 7 mps 735 mmHg 73%
    03:00 +7°C° 0 mm 6 mps 734 mmHg 78%
    04:00 +7°C° 0 mm 5 mps 734 mmHg 82%
    05:00 +7°C° 0 mm 5 mps 734 mmHg 85%
    06:00 +7°C° 0 mm 4 mps 734 mmHg 88%
    07:00 +7°C° 0 mm 4 mps 734 mmHg 87%
    08:00 +7°C° 0 mm 4 mps 734 mmHg 87%
    09:00 +8°C° 0 mm 4 mps 734 mmHg 86%
    10:00 +8°C° 0 mm 4 mps 734 mmHg 83%
    11:00 +8°C° 0 mm 4 mps 734 mmHg 79%
    12:00 +8°C° 0 mm 4 mps 734 mmHg 75%
    13:00 +10°C° 0 mm 4 mps 734 mmHg 69%
    14:00 +10°C° 0 mm 3 mps 733 mmHg 63%
    15:00 +11°C° 0 mm 3 mps 733 mmHg 57%
    16:00 +10°C° 0 mm 3 mps 733 mmHg 59%
    17:00 +8°C° 0 mm 2 mps 733 mmHg 61%
    18:00 +8°C° 0 mm 1 mps 733 mmHg 63%
    19:00 +7°C° 0 mm 1 mps 733 mmHg 63%
    20:00 +7°C° 0 mm 1 mps 733 mmHg 63%
    21:00 +6°C° 0 mm 1 mps 734 mmHg 63%
    22:00 +6°C° 0 mm 1 mps 733 mmHg 62%
    23:00 +6°C° 0 mm 1 mps 733 mmHg 61%

    13 December, Thursday

    Time Temperature Precipitation Wind Pressure Humidity
    00:00 +7°C° 0 mm 1 mps 733 mmHg 60%
    01:00 +6°C° 0 mm 1 mps 733 mmHg 60%
    02:00 +5°C° 0 mm 2 mps 733 mmHg 61%
    03:00 +5°C° 0 mm 2 mps 732 mmHg 61%
    04:00 +3°C° 0 mm 3 mps 733 mmHg 62%
    05:00 +3°C° 0 mm 3 mps 733 mmHg 62%
    06:00 +3°C° 0 mm 4 mps 733 mmHg 63%
    07:00 +3°C° 0 mm 5 mps 734 mmHg 63%
    08:00 +3°C° 0 mm 6 mps 735 mmHg 62%
    09:00 +2°C° 0 mm 8 mps 736 mmHg 62%
    10:00 +4°C° 0 mm 8 mps 736 mmHg 61%
    11:00 +5°C° 0 mm 9 mps 737 mmHg 59%
    12:00 +6°C° 0 mm 9 mps 737 mmHg 58%
    13:00 +6°C° 0 mm 9 mps 737 mmHg 58%
    14:00 +6°C° 0 mm 9 mps 737 mmHg 58%
    15:00 +6°C° 0 mm 10 mps 737 mmHg 59%
    16:00 +5°C° 0 mm 9 mps 738 mmHg 60%
    17:00 +5°C° 0 mm 9 mps 738 mmHg 62%
    18:00 +3°C° 0 mm 9 mps 739 mmHg 63%
    19:00 +4°C° 0 mm 8 mps 739 mmHg 65%
    20:00 +2°C° 0 mm 8 mps 740 mmHg 66%
    21:00 +1°C° 0 mm 8 mps 740 mmHg 68%
    22:00 +2°C° 0 mm 7 mps 740 mmHg 69%
    23:00 0°C° 0 mm 7 mps 740 mmHg 70%

    14 December, Friday

    Time Temperature Precipitation Wind Pressure Humidity
    00:00 -1°C° 0 mm 7 mps 740 mmHg 72%
    01:00 -1°C° 0 mm 7 mps 740 mmHg 70%
    02:00 -1°C° 0 mm 7 mps 740 mmHg 68%
    03:00 -2°C° 0 mm 7 mps 740 mmHg 66%
    04:00 -2°C° 0 mm 7 mps 741 mmHg 66%
    05:00 -2°C° 0 mm 7 mps 741 mmHg 66%
    06:00 -3°C° 0 mm 7 mps 741 mmHg 65%
    07:00 -2°C° 0 mm 7 mps 742 mmHg 63%
    08:00 -2°C° 0 mm 7 mps 742 mmHg 61%
    09:00 -2°C° 0 mm 7 mps 742 mmHg 58%
    10:00 0°C° 0 mm 7 mps 742 mmHg 52%
    11:00 +3°C° 0 mm 7 mps 742 mmHg 46%
    12:00 +5°C° 0 mm 7 mps 742 mmHg 40%
    13:00 +6°C° 0 mm 7 mps 741 mmHg 38%
    14:00 +8°C° 0 mm 6 mps 741 mmHg 36%
    15:00 +9°C° 0 mm 6 mps 740 mmHg 34%
    16:00 +7°C° 0 mm 5 mps 740 mmHg 39%
    17:00 +5°C° 0 mm 4 mps 740 mmHg 44%
    18:00 +4°C° 0 mm 3 mps 740 mmHg 50%
    19:00 +3°C° 0 mm 3 mps 740 mmHg 51%
    20:00 +3°C° 0 mm 2 mps 741 mmHg 52%
    21:00 +3°C° 0 mm 2 mps 741 mmHg 53%
    22:00 +2°C° 0 mm 2 mps 741 mmHg 53%
    23:00 +2°C° 0 mm 2 mps 740 mmHg 54%

    15 December, Saturday

    Time Temperature Precipitation Wind Pressure Humidity
    00:00 +2°C° 0 mm 2 mps 740 mmHg 54%
    01:00 +2°C° 0 mm 1 mps 740 mmHg 54%
    02:00 +2°C° 0 mm 1 mps 740 mmHg 54%
    03:00 +1°C° 0 mm 1 mps 740 mmHg 54%
    04:00 +1°C° 0 mm 1 mps 740 mmHg 53%
    05:00 +1°C° 0 mm 1 mps 740 mmHg 53%
    06:00 +1°C° 0 mm 1 mps 740 mmHg 53%
    07:00 +2°C° 0 mm 1 mps 740 mmHg 50%
    08:00 +3°C° 0 mm 1 mps 740 mmHg 47%
    09:00 +3°C° 0 mm 2 mps 740 mmHg 44%
    10:00 +5°C° 0 mm 2 mps 740 mmHg 39%
    11:00 +7°C° 0 mm 2 mps 740 mmHg 34%
    12:00 +9°C° 0 mm 3 mps 740 mmHg 29%
    13:00 +10°C° 0 mm 3 mps 739 mmHg 30%
    14:00 +10°C° 0 mm 3 mps 738 mmHg 31%
    15:00 +11°C° 0 mm 4 mps 738 mmHg 32%
    16:00 +10°C° 0 mm 4 mps 738 mmHg 36%
    17:00 +8°C° 0 mm 3 mps 737 mmHg 39%
    18:00 +7°C° 0 mm 3 mps 737 mmHg 43%
    19:00 +7°C° 0 mm 3 mps 737 mmHg 44%
    20:00 +7°C° 0 mm 3 mps 737 mmHg 46%
    21:00 +6°C° 0 mm 4 mps 737 mmHg 47%
    22:00 +6°C° 0 mm 4 mps 737 mmHg 48%
    23:00 +6°C° 0 mm 4 mps 737 mmHg 48%
    Show more